Location: Homewood
(41.1836°S, 175.9581°E)
Time: 06:28:34
(UTC+00:00)

GEOS 3 Rocket - Visible Passes

Search period start: 16 July 2024 00:00
Search period end: 26 July 2024 00:00
Orbit: 784 x 831 km, 115.0° (Epoch: 15 July)

Date Brightness Start Highest point End Pass type
(mag) Time Alt. Az. Time Alt. Az. Time Alt. Az.
16 Jul 6.0 06:32:28 10° S 06:34:40 13° SSW 06:36:51 10° SW visible
17 Jul 5.8 06:07:17 10° S 06:10:49 18° SW 06:14:21 10° WSW visible
18 Jul 5.3 05:42:27 10° SSE 05:46:52 27° SW 05:51:17 10° W visible
19 Jul 6.1 06:57:44 10° S 06:59:43 12° SSW 07:01:41 10° SW visible
20 Jul 5.8 06:32:28 10° S 06:35:52 18° SW 06:39:17 10° WSW visible
21 Jul 5.4 06:07:36 10° SSE 06:11:55 26° SW 06:16:16 10° W visible
22 Jul 4.8 05:42:55 10° SSE 05:47:53 41° SW 05:52:50 10° WNW visible
22 Jul 6.1 07:23:00 10° S 07:24:45 12° SSW 07:26:30 10° SW visible
23 Jul 5.9 06:57:39 10° S 07:00:55 17° SSW 07:04:13 10° WSW visible
24 Jul 5.5 06:32:45 10° SSE 06:37:00 25° SW 06:41:15 10° W visible
25 Jul 4.9 06:08:04 10° SSE 06:12:57 38° SW 06:17:51 10° WNW visible
25 Jul 6.2 07:48:18 10° S 07:49:47 11° SSW 07:51:16 10° SW visible
